• Em Portugal
  • Lista de países
  • Para 7 dias
  • Temperatura da água
  • Mapas de satélite
  • Mapa do tempo
  • Widgets de tempo
  • user-avatar
    Iniciar Sessão

    Previsão horária em Borovenskie Hutora

    Hoje, 20 Setembro, Quinta-feira

    Tempo Temperatura Precipitação Vento Pressão Humidade
    00:00 +17°C° 0 mm 3 m/s 748 mmHg 94%
    01:00 +16°C° 0 mm 2 m/s 748 mmHg 94%
    02:00 +16°C° 0 mm 2 m/s 748 mmHg 95%
    03:00 +16°C° 0 mm 2 m/s 748 mmHg 96%
    04:00 +15°C° 0 mm 2 m/s 748 mmHg 96%
    05:00 +15°C° 0 mm 2 m/s 749 mmHg 96%
    06:00 +15°C° 0 mm 2 m/s 749 mmHg 92%
    07:00 +16°C° 0 mm 2 m/s 749 mmHg 88%
    08:00 +17°C° 0 mm 2 m/s 749 mmHg 84%
    09:00 +18°C° 0 mm 2 m/s 749 mmHg 75%
    10:00 +20°C° 0 mm 2 m/s 750 mmHg 66%
    11:00 +23°C° 0 mm 2 m/s 750 mmHg 57%
    12:00 +24°C° 0 mm 3 m/s 750 mmHg 54%
    13:00 +25°C° 0 mm 3 m/s 750 mmHg 52%
    14:00 +26°C° 0 mm 3 m/s 750 mmHg 49%
    15:00 +25°C° 0 mm 2 m/s 749 mmHg 55%
    16:00 +24°C° 0 mm 2 m/s 749 mmHg 60%
    17:00 +24°C° 0 mm 1 m/s 749 mmHg 66%
    18:00 +22°C° 0 mm 1 m/s 749 mmHg 71%
    19:00 +21°C° 0 mm 1 m/s 749 mmHg 77%
    20:00 +19°C° 0 mm 1 m/s 749 mmHg 83%
    21:00 +19°C° 0 mm 1 m/s 749 mmHg 85%
    22:00 +19°C° 0 mm 1 m/s 749 mmHg 88%
    23:00 +17°C° 0 mm 2 m/s 749 mmHg 90%

    Amanhã, 21 Setembro, Sexta-feira

    Tempo Temperatura Precipitação Vento Pressão Humidade
    00:00 +17°C° 0 mm 2 m/s 749 mmHg 91%
    01:00 +17°C° 0 mm 2 m/s 750 mmHg 92%
    02:00 +17°C° 0 mm 2 m/s 750 mmHg 92%
    03:00 +17°C° 0 mm 2 m/s 750 mmHg 92%
    04:00 +17°C° 0 mm 2 m/s 750 mmHg 93%
    05:00 +16°C° 0 mm 2 m/s 750 mmHg 93%
    06:00 +18°C° 0 mm 2 m/s 750 mmHg 89%
    07:00 +19°C° 0 mm 2 m/s 750 mmHg 85%
    08:00 +20°C° 0 mm 3 m/s 750 mmHg 81%
    09:00 +21°C° 0 mm 3 m/s 750 mmHg 75%
    10:00 +24°C° 0 mm 3 m/s 750 mmHg 68%
    11:00 +26°C° 0 mm 3 m/s 750 mmHg 62%
    12:00 +26°C° 0 mm 4 m/s 749 mmHg 59%
    13:00 +27°C° 0 mm 4 m/s 749 mmHg 56%
    14:00 +27°C° 0 mm 4 m/s 749 mmHg 53%
    15:00 +26°C° 0 mm 4 m/s 748 mmHg 56%
    16:00 +25°C° 0 mm 3 m/s 748 mmHg 59%
    17:00 +24°C° 0 mm 3 m/s 748 mmHg 63%
    18:00 +22°C° 0 mm 3 m/s 747 mmHg 66%
    19:00 +20°C° 0 mm 3 m/s 747 mmHg 69%
    20:00 +19°C° 0 mm 3 m/s 747 mmHg 72%
    21:00 +19°C° 0 mm 4 m/s 746 mmHg 70%
    22:00 +19°C° 0 mm 4 m/s 746 mmHg 68%
    23:00 +19°C° 0 mm 5 m/s 746 mmHg 67%

    Depois de amanhã, 22 Setembro, Sábado

    Tempo Temperatura Precipitação Vento Pressão Humidade
    00:00 +19°C° 0 mm 5 m/s 745 mmHg 68%
    01:00 +17°C° 0 mm 5 m/s 745 mmHg 69%
    02:00 +17°C° 0 mm 5 m/s 744 mmHg 70%
    03:00 +17°C° 0 mm 5 m/s 744 mmHg 71%
    04:00 +17°C° 0 mm 5 m/s 743 mmHg 72%
    05:00 +16°C° 0 mm 5 m/s 743 mmHg 73%
    06:00 +17°C° 0 mm 5 m/s 743 mmHg 73%
    07:00 +17°C° 0 mm 5 m/s 743 mmHg 74%
    08:00 +17°C° 0 mm 5 m/s 743 mmHg 74%
    09:00 +16°C° 0.6 mm 5 m/s 744 mmHg 78%
    10:00 +15°C° 0.6 mm 4 m/s 744 mmHg 82%
    11:00 +14°C° 0.6 mm 4 m/s 744 mmHg 86%
    12:00 +14°C° 0.6 mm 4 m/s 744 mmHg 84%
    13:00 +14°C° 0.6 mm 4 m/s 745 mmHg 82%
    14:00 +14°C° 0.6 mm 4 m/s 745 mmHg 80%
    15:00 +13°C° 0.1 mm 4 m/s 745 mmHg 80%
    16:00 +13°C° 0.1 mm 4 m/s 745 mmHg 79%
    17:00 +13°C° 0.1 mm 3 m/s 745 mmHg 79%
    18:00 +12°C° 0.1 mm 3 m/s 745 mmHg 79%
    19:00 +12°C° 0.1 mm 4 m/s 745 mmHg 79%
    20:00 +11°C° 0.1 mm 4 m/s 745 mmHg 79%
    21:00 +11°C° 0.1 mm 3 m/s 745 mmHg 80%
    22:00 +10°C° 0.1 mm 3 m/s 745 mmHg 82%
    23:00 +10°C° 0.1 mm 3 m/s 745 mmHg 84%

    23 Setembro, Domingo

    Tempo Temperatura Precipitação Vento Pressão Humidade
    00:00 +9°C° 0 mm 3 m/s 745 mmHg 87%
    01:00 +8°C° 0 mm 3 m/s 745 mmHg 90%
    02:00 +8°C° 0 mm 2 m/s 745 mmHg 93%
    03:00 +7°C° 0 mm 2 m/s 744 mmHg 93%
    04:00 +7°C° 0 mm 3 m/s 744 mmHg 93%
    05:00 +7°C° 0 mm 3 m/s 744 mmHg 94%
    06:00 +8°C° 0 mm 3 m/s 744 mmHg 90%
    07:00 +8°C° 0 mm 4 m/s 744 mmHg 86%
    08:00 +8°C° 0 mm 4 m/s 744 mmHg 82%
    09:00 +10°C° 0 mm 5 m/s 743 mmHg 76%
    10:00 +12°C° 0 mm 5 m/s 743 mmHg 70%
    11:00 +13°C° 0 mm 6 m/s 743 mmHg 64%
    12:00 +13°C° 0.2 mm 6 m/s 743 mmHg 64%
    13:00 +14°C° 0.2 mm 7 m/s 743 mmHg 63%
    14:00 +14°C° 0.2 mm 7 m/s 743 mmHg 62%
    15:00 +13°C° 0.1 mm 6 m/s 743 mmHg 64%
    16:00 +13°C° 0.1 mm 5 m/s 743 mmHg 66%
    17:00 +12°C° 0.1 mm 4 m/s 743 mmHg 68%
    18:00 +11°C° 0 mm 4 m/s 743 mmHg 71%
    19:00 +10°C° 0 mm 4 m/s 743 mmHg 74%
    20:00 +8°C° 0 mm 4 m/s 744 mmHg 78%
    21:00 +9°C° 0 mm 3 m/s 743 mmHg 80%
    22:00 +8°C° 0 mm 3 m/s 743 mmHg 83%
    23:00 +8°C° 0 mm 3 m/s 743 mmHg 85%

    24 Setembro, Segunda-feira

    Tempo Temperatura Precipitação Vento Pressão Humidade
    00:00 +7°C° 0 mm 3 m/s 743 mmHg 86%
    01:00 +7°C° 0 mm 2 m/s 743 mmHg 87%
    02:00 +7°C° 0 mm 2 m/s 742 mmHg 88%
    03:00 +7°C° 0 mm 2 m/s 742 mmHg 86%
    04:00 +7°C° 0 mm 2 m/s 742 mmHg 84%
    05:00 +7°C° 0 mm 3 m/s 741 mmHg 82%
    06:00 +7°C° 0 mm 3 m/s 740 mmHg 79%
    07:00 +7°C° 0 mm 4 m/s 740 mmHg 77%
    08:00 +8°C° 0 mm 5 m/s 739 mmHg 74%
    09:00 +8°C° 1.4 mm 6 m/s 738 mmHg 79%
    10:00 +7°C° 1.4 mm 6 m/s 737 mmHg 84%
    11:00 +6°C° 1.4 mm 7 m/s 736 mmHg 88%
    12:00 +8°C° 1.3 mm 7 m/s 735 mmHg 89%
    13:00 +7°C° 1.3 mm 8 m/s 733 mmHg 89%
    14:00 +7°C° 1.3 mm 8 m/s 732 mmHg 90%
    15:00 +8°C° 1.9 mm 7 m/s 731 mmHg 91%
    16:00 +9°C° 1.9 mm 6 m/s 730 mmHg 92%
    17:00 +9°C° 1.9 mm 5 m/s 728 mmHg 93%
    18:00 +10°C° 1.2 mm 5 m/s 727 mmHg 94%
    19:00 +11°C° 1.2 mm 4 m/s 726 mmHg 95%
    20:00 +11°C° 1.2 mm 3 m/s 725 mmHg 96%
    21:00 +11°C° 1.1 mm 4 m/s 724 mmHg 95%
    22:00 +11°C° 1.1 mm 4 m/s 724 mmHg 95%
    23:00 +11°C° 1.1 mm 4 m/s 723 mmHg 94%

    25 Setembro, Terça-feira

    Tempo Temperatura Precipitação Vento Pressão Humidade
    00:00 +11°C° 1.1 mm 4 m/s 723 mmHg 94%
    01:00 +10°C° 1.1 mm 4 m/s 723 mmHg 94%
    02:00 +10°C° 1.1 mm 4 m/s 723 mmHg 94%
    03:00 +8°C° 0.7 mm 5 m/s 723 mmHg 93%
    04:00 +8°C° 0.7 mm 6 m/s 724 mmHg 92%
    05:00 +6°C° 0.7 mm 7 m/s 724 mmHg 91%
    06:00 +6°C° 0.4 mm 7 m/s 725 mmHg 90%
    07:00 +6°C° 0.4 mm 8 m/s 726 mmHg 88%
    08:00 +5°C° 0.4 mm 8 m/s 727 mmHg 87%
    09:00 +5°C° 0.4 mm 9 m/s 729 mmHg 86%
    10:00 +5°C° 0.4 mm 9 m/s 730 mmHg 86%
    11:00 +5°C° 0.4 mm 9 m/s 731 mmHg 85%
    12:00 +5°C° 0.3 mm 9 m/s 732 mmHg 84%
    13:00 +5°C° 0.3 mm 9 m/s 734 mmHg 83%
    14:00 +5°C° 0.3 mm 9 m/s 735 mmHg 82%
    15:00 +5°C° 0.2 mm 9 m/s 736 mmHg 81%
    16:00 +5°C° 0.2 mm 9 m/s 737 mmHg 80%
    17:00 +5°C° 0.2 mm 8 m/s 738 mmHg 79%
    18:00 +4°C° 0 mm 8 m/s 739 mmHg 78%
    19:00 +4°C° 0 mm 7 m/s 739 mmHg 77%
    20:00 +4°C° 0 mm 6 m/s 740 mmHg 76%
    21:00 +3°C° 0 mm 6 m/s 741 mmHg 75%
    22:00 +3°C° 0 mm 6 m/s 741 mmHg 74%
    23:00 +2°C° 0 mm 6 m/s 742 mmHg 73%
    Mostrar mais